Volver al catálogo

GLOBALSTAR M078

ActivoComunicacionesLEO
NORAD 39076·PAYLOAD·🇺🇸 United States

Lanzado Feb 6, 2013 desde Baikonur Cosmodrome

Loading…

Próximos Pases (próximas 24 horas)

TLE

ActualizadoSource: Space-Track

Época: Sep 14, 2026, 08:43 UTC

1 39076U 13005E   26257.36333837 -.00000176  00000-0 -40580-3 0  9998
2 39076  51.9900  12.0446 0001542 102.5524 257.5516 12.62259205627278

Sigue GLOBALSTAR M078 en tiempo real con AllMySat

Download on the App Store